Malwa Express 12920 Schedule, Route, Map - Jammu to Indore train
Must See India - Best Travel Guide to India
Home   |   Login   |   Register   |   Contact Us
 

Malwa Express (12920)

Print
     

Service Days:

All Days

Classes:

AC 2 Tier (2A), AC 3 Tier (3A), Sleeper (SL)

Duration:

27h 50m

Station Arrival Departure Stop Time Distance Day
1 Jammu (JAT) starts 09:00 am Starts 0 km 1
2 Kathua (KTHU) 10:05 am 10:07 am 2 min 77 km 1
3 Chakki Bank (CHKB) 10:40 am 10:45 am 5 min 100 km 1
4 Mukeria (MEX) 11:22 am 11:24 am 2 min 139 km 1
5 Dasuya (DZA) 11:40 am 11:42 am 2 min 155 km 1
6 Jalandhar Cant (JRC) 12:38 pm 12:43 pm 5 min 213 km 1
7 Ludhiana (LDH) 01:30 pm 01:50 pm 20 min 265 km 1
8 Khanna (KNN) 02:24 pm 02:26 pm 2 min 307 km 1
9 Ambala Cant Jn (UMB) 03:35 pm 03:40 pm 5 min 378 km 1
10 Kurukshetra (KKDE) 04:15 pm 04:17 pm 2 min 420 km 1
11 Karnal (KUN) 04:42 pm 04:44 pm 2 min 453 km 1
12 Panipat (PNP) 05:15 pm 05:17 pm 2 min 487 km 1
13 Sonipat (SNP) 05:51 pm 05:53 pm 2 min 532 km 1
14 Subzi Mandi (SZM) 06:36 pm 06:38 pm 2 min 573 km 1
15 Delhi (NDLS) 07:00 pm 07:20 pm 20 min 577 km 1
16 Faridabad (FDB) 07:48 pm 07:50 pm 2 min 605 km 1
17 Ballabgarh (BVH) 08:01 pm 08:03 pm 2 min 613 km 1
18 Palwal (PWL) 08:30 pm 08:32 pm 2 min 634 km 1
19 Kosi Kalan (KSV) 09:02 pm 09:04 pm 2 min 676 km 1
20 Mathura (MTJ) 09:45 pm 09:48 pm 3 min 717 km 1
21 Agra (AGC) 10:40 pm 10:50 pm 10 min 771 km 1
22 Dhaulpur (DHO) 11:25 pm 11:27 pm 2 min 824 km 1
23 Morena (MRA) 11:50 pm 11:52 pm 2 min 851 km 1
24 Gwalior (GWL) 12:30 am 12:35 am 5 min 890 km 2
25 Dabra (DBA) 01:19 am 01:21 am 2 min 932 km 2
26 Datia (DAA) 01:47 am 01:49 am 2 min 962 km 2
27 Jhansi (JHS) 02:25 am 02:35 am 10 min 987 km 2
28 Lalitpur (LAR) 03:58 am 04:00 am 2 min 1,077 km 2
29 Bina Jn (BINA) 05:20 am 05:25 am 5 min 1,139 km 2
30 Ganj Basoda (BAQ) 05:53 am 05:55 am 2 min 1,185 km 2
31 Vidisha (BHS) 06:28 am 06:30 am 2 min 1,224 km 2
32 Bhopal (BPL) 07:25 am 07:50 am 25 min 1,278 km 2
33 Bairagarh (BIH) 07:59 am 08:01 am 2 min 1,288 km 2
34 Sehore (SEH) 08:25 am 08:27 am 2 min 1,316 km 2
35 Kalapipal (KPP) 08:50 am 08:52 am 2 min 1,345 km 2
36 Shujalpur (SJP) 09:03 am 09:05 am 2 min 1,358 km 2
37 Akodia (AKD) 09:16 am 09:18 am 2 min 1,371 km 2
38 Berchha (BCH) 09:39 am 09:41 am 2 min 1,401 km 2
39 Maksi (MKC) 10:01 am 10:02 am 1 min 1,420 km 2
40 Ujjain (UJN) 11:05 am 11:20 am 15 min 1,461 km 2
41 Dewas (DWX) 12:00 pm 12:02 pm 2 min 1,501 km 2
42 Indore (INDB) 12:50 pm ends Ends 1,540 km 2

 

 Click to view map

You can drag the map with your mouse, and double-click to zoom.

People who viewed this page also viewed

 
Bharatpur packages from Pune
 
Chikmagalur packages from Delhi
 
Coonoor hotels
 
Dadra honeymoon packages from Chennai
 
Gangtok packages from Kolkata
 
Kasauli honeymoon packages from Chennai
 
Kasauli packages from Chennai
 
Kumarakom packages from Pune
 
Mussoorie packages from Mumbai
 
Pushkar Tour Packages from Chennai
 
Ranikhet packages from Pune
 
book hotels in Rajkot
 

Destinations

 
 

More

 
debug_temp: train_route : train:558:Malwa Express:Train